Flag for Germany Weather past 2 weeks in Mainz, Rhineland-Palatinate, Germany

Now
46 °F

Clear.


Feels Like: 46 °F
Forecast: 48 / 68 °F
Wind: 2 mph from Northeast

Location: Wiesbaden Airport


UV Index: 3 (Moderate)

Visibility: N/A


Pressure: 29.67 "Hg

Humidity: 80%

Dew point: 40 °F

Location of MainzLocation

Historic Weather in Mainz

°F

Mainz temperature yesterday

Maximum temperature yesterday: 70 °F (at 3:58 PM)
Minimum temperature yesterday: 57 °F (at 6:58 AM)
Average temperature yesterday: 61 °F

Past Weeks' High & Low Weather Summary

 TemperatureHumidityPressure
High70 °F (Apr 20, 3:58 PM)100% (Apr 6, 7:58 AM)30.45 "Hg (Apr 6, 7:58 AM)
Low32 °F (Apr 16, 3:58 AM)31% (Apr 17, 5:58 PM)29.66 "Hg (Apr 21, 5:58 AM)
Average53 °F63%30.07 "Hg
* Reported Apr 6 6:58 AM — Apr 21 6:58 AM, Mainz, Weather by CustomWeather, © 2014

Note: Actual official high and low records may vary slightly from our data, if they occured in-between our weather recording intervals... More about our weather records

Advertising

Historic Weather Conditions — Data for Previous 24 hours

 ConditionsComfort  
Time TempWeatherWind HumidityBarometerVisibility
6:58 AM
Apr 21
46 °FClear.2 mph80%29.67 "HgN/A
5:58 AM48 °FClear.2 mph71%29.66 "HgN/A
4:58 AM52 °FClear.6 mph67%29.67 "HgN/A
3:58 AM54 °FClear.7 mph63%29.68 "HgN/A
2:58 AM54 °FClear.7 mph63%29.69 "HgN/A
1:58 AM55 °FClear.9 mph60%29.71 "HgN/A
12:58 AM55 °FPassing clouds.8 mph59%29.72 "HgN/A
11:58 PM
Apr 20
57 °FOvercast.10 mph55%29.71 "HgN/A
10:58 PM59 °FMostly cloudy.13 mph53%29.71 "HgN/A
9:58 PM59 °FPassing clouds.10 mph51%29.71 "HgN/A
8:58 PM61 °FBroken clouds.10 mph52%29.70 "HgN/A
7:58 PM64 °FMore clouds than sun.8 mph44%29.67 "HgN/A
6:58 PM66 °FPassing clouds.9 mph40%29.67 "HgN/A
5:58 PM68 °FPassing clouds.10 mph38%29.67 "HgN/A
4:58 PM68 °FScattered clouds.8 mph40%29.68 "HgN/A
3:58 PM70 °FScattered clouds.13 mph40%29.69 "HgN/A
2:58 PM66 °FPartly sunny.13 mph47%29.70 "HgN/A
1:58 PM68 °FPassing clouds.12 mph46%29.71 "HgN/A
12:58 PM65 °FPassing clouds.12 mph51%29.72 "HgN/A
11:58 AM64 °FBroken clouds.14 mph56%29.73 "HgN/A
10:58 AM63 °FSunny.12 mph59%29.74 "HgN/A
9:58 AM61 °FSunny.15 mph63%29.74 "HgN/A
8:58 AM59 °FSunny.13 mph68%29.75 "HgN/A
7:58 AM57 °FSunny.10 mph71%29.75 "HgN/A
Weather by CustomWeather, © 2014

See weather overview